Weather History for K9A4 - October, 2012

Change the Weather History Date:

Tuesday, October 2, 2012

  Actual Average (KMSL) Record (KMSL)
Temperature  
Mean Temperature 62 °F 67 °F  
Max Temperature 69 °F 79 °F 93 °F (1903)
Min Temperature 55 °F 55 °F 34 °F (1984)
Degree Days  
Heating Degree Days 3 2  
Month to date heating degree days 4  
Since 1 July heating degree days 19  
Cooling Degree Days 0 4  
Month to date cooling degree days 8  
Year to date cooling degree days 1810  
Growing Degree Days 12 (Base 50)    
Moisture  
Dew Point 56 °F    
Average Humidity 87    
Maximum Humidity 100    
Minimum Humidity 53    
Precipitation  
Precipitation 0.00 in 0.11 in 1.21 in (1937)
Month to date precipitation 0.22  
Year to date precipitation 39.65  
Snow  
Snow 0.00 in - - ()
Month to date snowfall  
Since 1 July snowfall  
Since 1 September snowfall  
Snow Depth -    
Sea Level Pressure  
Sea Level Pressure 29.84 in    
Wind  
Wind Speed 5 mph (WNW)    
Max Wind Speed 9 mph    
Max Gust Speed -    
Visibility 9 miles    
Events      
T = Trace of Precipitation, MM = Missing Value Source: NWS Daily Summary

Daily Weather History Graph

Daily Weather History Graph

Search for Another Location

Airport or City:

Trip Planner

Search our weather history database for the weather conditions in past years. The results will help you decide how hot, cold, wet, or windy it might be!

Date:

Astronomy

Oct. 02, 2012 Rise Set
Actual Time 6:45 AM CDT 6:31 PM CDT
Civil Twilight 6:20 AM CDT 6:56 PM CDT
Nautical Twilight 5:50 AM CDT 7:25 PM CDT
Astronomical Twilight 5:21 AM CDT 7:54 PM CDT
Moon 7:52 PM CDT (10/2) 9:03 AM CDT (10/2)
Length of Visible Light 12h 36m
Length of Day
11h 46m
Waning Gibbous, 94% of the Moon is Illuminated
Oct 2
Waning Gibbous
Oct 8
Last Quarter
Oct 15
New
Oct 21
First Quarter
Oct 29
Full

Hourly Weather History & Observations

Time (CDT) Temp. Dew Point Humidity Pressure Visibility Wind Dir Wind Speed Gust Speed Precip Events Conditions
12:35 AM 60.8 °F 59.0 °F 94% 29.68 in 10.0 mi NW 5.8 mph - N/A   Overcast
12:55 AM 60.8 °F 59.0 °F 94% 29.68 in 10.0 mi NNW 5.8 mph - N/A   Overcast
1:15 AM 60.8 °F 59.0 °F 94% 29.68 in 10.0 mi NW 5.8 mph - N/A   Overcast
1:35 AM 59.0 °F 59.0 °F 100% 29.68 in 10.0 mi NW 5.8 mph - N/A   Overcast
1:55 AM 59.0 °F 59.0 °F 100% 29.69 in 10.0 mi NW 4.6 mph - N/A   Overcast
2:15 AM 59.0 °F 59.0 °F 100% 29.69 in 10.0 mi NW 6.9 mph - N/A   Overcast
3:15 AM 59.0 °F 59.0 °F 100% 29.70 in 3.0 mi NW 6.9 mph - N/A   Light Drizzle
3:35 AM 59.0 °F 59.0 °F 100% 29.70 in 4.0 mi WNW 4.6 mph - N/A   Light Drizzle
3:55 AM 59.0 °F 59.0 °F 100% 29.70 in 3.0 mi WNW 3.5 mph - N/A   Light Drizzle
4:15 AM 59.0 °F 59.0 °F 100% 29.71 in 2.0 mi WNW 5.8 mph - N/A   Drizzle
4:35 AM 57.2 °F 57.2 °F 100% 29.71 in 2.5 mi WNW 5.8 mph - N/A   Light Drizzle
4:55 AM 57.2 °F 57.2 °F 100% 29.72 in 3.0 mi WNW 6.9 mph - N/A   Overcast
5:15 AM 57.2 °F 57.2 °F 100% 29.72 in 4.0 mi WNW 5.8 mph - N/A   Overcast
5:55 AM 57.2 °F 57.2 °F 100% 29.73 in 5.0 mi WNW 5.8 mph - N/A   Overcast
6:15 AM 57.2 °F 57.2 °F 100% 29.74 in 5.0 mi WNW 5.8 mph - N/A   Overcast
6:35 AM 57.2 °F 57.2 °F 100% 29.75 in 7.0 mi WNW 6.9 mph - N/A   Overcast
6:55 AM 57.2 °F 57.2 °F 100% 29.75 in 5.0 mi WNW 5.8 mph - N/A   Overcast
7:15 AM 57.2 °F 57.2 °F 100% 29.77 in 7.0 mi WNW 4.6 mph - N/A   Overcast
7:35 AM 57.2 °F 57.2 °F 100% 29.78 in 7.0 mi NW 6.9 mph - N/A   Overcast
7:55 AM 57.2 °F 57.2 °F 100% 29.78 in 5.0 mi WNW 5.8 mph - N/A   Overcast
8:15 AM 59.0 °F 57.2 °F 94% 29.79 in 7.0 mi NW 5.8 mph - N/A   Overcast
8:55 AM 59.0 °F 57.2 °F 94% 29.81 in 10.0 mi WNW 4.6 mph - N/A   Overcast
9:15 AM 59.0 °F 59.0 °F 100% 29.82 in 5.0 mi WNW 3.5 mph - N/A   Overcast
9:35 AM 59.0 °F 57.2 °F 94% 29.82 in 7.0 mi WNW 4.6 mph - N/A   Overcast
9:55 AM 59.0 °F 57.2 °F 94% 29.83 in 10.0 mi WNW 5.8 mph - N/A   Overcast
10:15 AM 60.8 °F 57.2 °F 88% 29.84 in 10.0 mi WNW 4.6 mph - N/A   Overcast
11:15 AM 60.8 °F 57.2 °F 88% 29.85 in 10.0 mi West 6.9 mph - N/A   Overcast
11:35 AM 62.6 °F 55.4 °F 77% 29.85 in 10.0 mi WNW 8.1 mph - N/A   Overcast
11:55 AM 60.8 °F 55.4 °F 82% 29.86 in 10.0 mi West 9.2 mph - N/A   Overcast
12:15 PM 60.8 °F 55.4 °F 82% 29.86 in 10.0 mi West 5.8 mph - N/A   Overcast
12:35 PM 62.6 °F 55.4 °F 77% 29.86 in 10.0 mi West 3.5 mph - N/A   Overcast
12:55 PM 64.4 °F 53.6 °F 68% 29.86 in 10.0 mi WNW 4.6 mph - N/A   Overcast
1:15 PM 64.4 °F 55.4 °F 73% 29.86 in 10.0 mi West 6.9 mph - N/A   Overcast
1:35 PM 64.4 °F 53.6 °F 68% 29.86 in 10.0 mi WSW 5.8 mph - N/A   Overcast
1:55 PM 64.4 °F 53.6 °F 68% 29.86 in 10.0 mi West 6.9 mph - N/A   Overcast
2:15 PM 64.4 °F 53.6 °F 68% 29.86 in 10.0 mi West 4.6 mph - N/A   Overcast
2:35 PM 64.4 °F 53.6 °F 68% 29.86 in 10.0 mi Calm Calm - N/A   Overcast
2:55 PM 68.0 °F 53.6 °F 60% 29.86 in 10.0 mi Calm Calm - N/A   Mostly Cloudy
3:15 PM 66.2 °F 53.6 °F 64% 29.86 in 10.0 mi WNW 5.8 mph - N/A   Overcast
3:35 PM 69.8 °F 53.6 °F 56% 29.87 in 10.0 mi West 5.8 mph - N/A   Mostly Cloudy
3:55 PM 69.8 °F 53.6 °F 56% 29.87 in 10.0 mi WNW 5.8 mph - N/A   Scattered Clouds
4:15 PM 69.8 °F 53.6 °F 56% 29.88 in 10.0 mi Calm Calm - N/A   Scattered Clouds
4:55 PM 69.8 °F 51.8 °F 53% 29.88 in 10.0 mi Calm Calm - N/A   Mostly Cloudy
5:15 PM 69.8 °F 51.8 °F 53% 29.89 in 10.0 mi WSW 5.8 mph - N/A   Scattered Clouds
5:35 PM 69.8 °F 51.8 °F 53% 29.89 in 10.0 mi Calm Calm - N/A   Scattered Clouds
5:55 PM 69.8 °F 51.8 °F 53% 29.90 in 10.0 mi West 3.5 mph - N/A   Scattered Clouds
6:15 PM 66.2 °F 53.6 °F 64% 29.91 in 10.0 mi WSW 3.5 mph - N/A   Clear
6:35 PM 64.4 °F 55.4 °F 73% 29.91 in 10.0 mi SW 3.5 mph - N/A   Clear
6:55 PM 60.8 °F 59.0 °F 94% 29.92 in 10.0 mi South 3.5 mph - N/A   Clear
7:15 PM 59.0 °F 59.0 °F 100% 29.93 in 10.0 mi Calm Calm - N/A   Clear
7:35 PM 59.0 °F 57.2 °F 94% 29.93 in 10.0 mi Calm Calm - N/A   Clear
7:55 PM 59.0 °F 57.2 °F 94% 29.94 in 10.0 mi Calm Calm - N/A   Scattered Clouds
8:15 PM 57.2 °F 55.4 °F 94% 29.95 in 10.0 mi Calm Calm - N/A   Clear
8:35 PM 57.2 °F 57.2 °F 100% 29.96 in 10.0 mi Calm Calm - N/A   Clear
8:55 PM 55.4 °F 55.4 °F 100% 29.97 in 10.0 mi Calm Calm - N/A   Clear
9:15 PM 55.4 °F 55.4 °F 100% 29.98 in 10.0 mi Calm Calm - N/A   Clear
9:35 PM 55.4 °F 53.6 °F 94% 29.99 in 10.0 mi Calm Calm - N/A   Clear
9:55 PM 55.4 °F 55.4 °F 100% 29.99 in 10.0 mi Calm Calm - N/A   Clear
10:15 PM 55.4 °F 53.6 °F 94% 30.00 in 10.0 mi Calm Calm - N/A   Clear
10:35 PM 55.4 °F 55.4 °F 100% 30.00 in 10.0 mi Calm Calm - N/A   Clear
10:55 PM 55.4 °F 55.4 °F 100% 30.00 in 10.0 mi Calm Calm - N/A   Clear
11:15 PM 55.4 °F 55.4 °F 100% 30.00 in 10.0 mi SSW 5.8 mph - N/A   Clear
11:35 PM 57.2 °F 55.4 °F 94% 30.01 in 10.0 mi SSW 5.8 mph - N/A   Clear
11:55 PM 57.2 °F 55.4 °F 94% 30.01 in 10.0 mi SSW 5.8 mph - N/A   Clear